This is the latest recevied weather packets stored in our database for station/object K1KOF. If no packets are shown the sender has not sent any weather packets the latest 10 day(s).
| Time | Temp. | Humidity | Pressure | Rain* | Wind** | Luminosity | Snow |
|---|---|---|---|---|---|---|---|
| 1778203073 | 20.56° C | 84% | 1021.5 hPa | 0 mm | - | 0 W/m² | - |
| 1778202770 | 20.56° C | 82% | 1021.6 hPa | 0 mm | - | 0 W/m² | - |
| 1778202467 | 21.11° C | 82% | 1021.3 hPa | 0 mm | - | 0 W/m² | - |
| 1778202165 | 21.11° C | 81% | 1021.3 hPa | 0 mm | - | 0 W/m² | - |
| 1778201861 | 21.11° C | 80% | 1021.5 hPa | 0 mm | - | 0 W/m² | - |
| 1778201558 | 21.11° C | 80% | 1021 hPa | 0 mm | - | 0 W/m² | - |
| 1778201254 | 21.67° C | 79% | 1021.1 hPa | 0 mm | - | 0 W/m² | - |
| 1778200950 | 21.67° C | 80% | 1021 hPa | 0 mm | - | 0 W/m² | - |
| 1778200647 | 21.67° C | 80% | 1020.7 hPa | 0 mm | - | 0 W/m² | - |
| 1778200345 | 21.67° C | 80% | 1020.6 hPa | 0 mm | - | 0 W/m² | - |
| 1778200041 | 21.67° C | 79% | 1020.6 hPa | 0 mm | - | 0 W/m² | - |
| 1778199739 | 22.22° C | 78% | 1020.6 hPa | 0 mm | - | 0 W/m² | - |
| 1778199434 | 22.22° C | 78% | 1020.6 hPa | 0 mm | - | 0 W/m² | - |
| 1778199130 | 22.22° C | 78% | 1020.4 hPa | 0 mm | - | 0 W/m² | - |
| 1778198826 | 22.22° C | 78% | 1020.2 hPa | 0 mm | - | 2 W/m² | - |
| 1778198523 | 22.22° C | 77% | 1020.1 hPa | 0 mm | - | 4 W/m² | - |
| 1778198219 | 22.78° C | 76% | 1020.1 hPa | 0 mm | - | 9 W/m² | - |
| 1778197917 | 22.78° C | 77% | 1019.9 hPa | 0 mm | - | 12 W/m² | - |
| 1778197614 | 22.78° C | 77% | 1019.9 hPa | 0 mm | - | 12 W/m² | - |
| 1778197310 | 22.78° C | 76% | 1019.9 hPa | 0 mm | - | 18 W/m² | - |
| 1778197007 | 23.33° C | 76% | 1019.7 hPa | 0 mm | - | 18 W/m² | - |
| 1778196706 | 23.33° C | 76% | 1019.8 hPa | 0 mm | - | 18 W/m² | - |
| 1778196402 | 23.33° C | 75% | 1019.6 hPa | 0 mm | - | 23 W/m² | - |
| 1778196099 | 23.33° C | 75% | 1019.7 hPa | 0 mm | - | 23 W/m² | - |
| 1778195796 | 23.89° C | 74% | 1019.5 hPa | 0 mm | - | 27 W/m² | - |
* Rain latest hour (hover to see other rain measurements)
** Current wind speed in m/s (hover to see current wind gust speed)